Regional Weather Roundup
Issued by NWS

Home | Current Version | Previous Version | Text Only | Print | Product List | Glossary Off
Versions: 1 2 3 4 5 6 7 8 9 10 11 12 13 14 15 16 17 18 19 20 21 22 23 24 25 26 27 28 29 30 31 32 33 34 35 36 37 38 39 40 41 42 43 44 45 46 47 48 49 50

880
ASUS43 KOAX 200110
RWRNE

WEATHER ROUNDUP FOR NEBRASKA
NATIONAL WEATHER SERVICE OMAHA NE
800 PM CDT SAT MAY 19 2018

NOTES: SATELLITE DATA IS BEING USED TO AUGMENT CLOUD COVER ABOVE
       12000 FEET.
       "FAIR" INDICATES FEW OR NO CLOUDS BELOW 12,000 FEET WITH NO
       SIGNIFICANT WEATHER AND/OR OBSTRUCTIONS TO VISIBILITY.


NEZ001>004-019>022-054>056-200200-
NEBRASKA PANHANDLE

CITY           SKY/WX    TMP DP  RH WIND       PRES   REMARKS
SCOTTSBLUFF    LGT RAIN  45  42  89 NE15      30.22S
ALLIANCE       LGT RAIN  43  42  97 N17       30.19S
CHADRON        CLOUDY    46  42  86 W5        30.23F
GORDON         LGT RAIN  48  44  85 N9        30.19R
KIMBALL        DRIZZLE   41  40  95 N15       30.21S
SIDNEY         LGT RAIN  43  41  93 N16G26    30.20R
$$

NEZ057>060-069>072-079>082-200200-
SOUTHWEST NEBRASKA

CITY           SKY/WX    TMP DP  RH WIND       PRES   REMARKS
NORTH PLATTE   RAIN      50  49  96 N6        30.11R FOG
IMPERIAL       LGT RAIN  47  47 100 N14G23    30.12S
LEXINGTON      RAIN      50  48  94 NE10G18   30.05R
MCCOOK         CLOUDY    50  49  96 N10       30.09R FOG
OGALLALA       LGT RAIN  47  46  94 N22G32    30.14R
$$

NEZ005>010-023>029-035>040-094-200200-
NORTH CENTRAL NEBRASKA

CITY           SKY/WX    TMP DP  RH WIND       PRES   REMARKS
VALENTINE      CLOUDY    56  39  53 N9        30.12R
AINSWORTH      RAIN      51  48  89 N8        30.09R
BROKEN BOW     CLOUDY    51  49  92 N13       30.05R
O`NEILL        DRIZZLE   53  53  97 N8        30.07R
ORD            CLOUDY    51  50  96 N10       30.04R
THEDFORD       CLOUDY    49  45  86 N9        30.11R
$$

NEZ041-046>049-061>064-073>077-083>087-200200-
SOUTH CENTRAL NEBRASKA

CITY           SKY/WX    TMP DP  RH WIND       PRES   REMARKS
GRAND ISLAND   CLOUDY    52  49  89 N14       30.04R
AURORA         CLOUDY    52  51  97 N17       30.01F
HASTINGS       CLOUDY    52  49  89 N14       30.03R
HEBRON         CLOUDY    59  54  84 N14       29.98S
HOLDREGE       CLOUDY    49  48  97 NE17      30.02R
KEARNEY        CLOUDY    50  47  89 NE16      30.03S
YORK           CLOUDY    54  54 100 N13       30.00F
$$

NEZ011>018-030>034-042>045-200200-
NORTHEAST NEBRASKA

CITY           SKY/WX    TMP DP  RH WIND       PRES   REMARKS
NORFOLK        LGT RAIN  52  51  97 N10       30.01F
ALBION         LGT RAIN  52  50  93 N7        30.05R
BLAIR          CLOUDY    59  55  85 N8        29.98R
COLUMBUS       CLOUDY    55  51  86 N12       30.02S
FREMONT        LGT RAIN  59  55  87 N6        29.99S
TEKAMAH        CLOUDY    59  55  87 N8        29.99R
WAYNE          CLOUDY    55  54  97 N7        30.03R
$$

NEZ050>053-065>068-078-088>093-200200-
SOUTHEAST NEBRASKA

CITY           SKY/WX    TMP DP  RH WIND       PRES   REMARKS
LINCOLN        CLOUDY    59  52  77 N13       29.99R
OMAHA EPPLEY   CLOUDY    62  55  77 N13       29.98R
BEATRICE       CLOUDY    62  56  79 NE13G18   29.96F
FALLS CITY     CLOUDY    72  56  57 N10       29.90R
NEBRASKA CITY  CLOUDY    66  58  77 N12       29.95R
PLATTSMOUTH    PTCLDY    62  56  79 N9        29.96R
$$

NEZ044-045-051>053-067-200200-
OMAHA AREA

CITY           SKY/WX    TMP DP  RH WIND       PRES   REMARKS
OMAHA EPPLEY   CLOUDY    62  55  77 N13       29.98R
BLAIR          CLOUDY    59  55  85 N8        29.98R
FREMONT        LGT RAIN  59  55  87 N6        29.99S
MILLARD        CLOUDY    62  55  80 N3        29.98S
OFFUTT AFB     CLOUDY    62  55  79 N10       29.96R
PLATTSMOUTH    PTCLDY    62  56  79 N9        29.96R
WAHOO          DRIZZLE   59  53  83 NW6       30.00R
$$




USA.gov is the U.S. government's official web portal to all federal, state and local government web resources and services.